User: anonymous   Login
Location: Unspecified
(0.0000°N, 0.0000°E)
Time: 15:09:30
(UTC+01:00)
Language:

NATO 3D Rocket - Orbit

View from above orbital plane
View from above orbital plane
View from above satellite
View from above satellite

Ground track
Ground track

The orbit data is extracted from the following two-line orbital elements,

1 15392U 84115B   16337.77222366 +.00000233 +00000-0 +57340-4 0  9995
2 15392 021.4955 128.6405 1034553 219.5163 132.5150 12.45541019441718
Epoch (UTC): 02 December 2016 18:32:00
Eccentricity: 0.1034553
inclination: 21.4955°
perigee height: 670 km
apogee height: 2296 km
right ascension of ascending node: 128.6405°
argument of perigee: 219.5163°
revolutions per day: 12.45541019
mean anomaly at epoch: 132.5150°
orbit number at epoch: 44171

The dashed part of the orbit path shows where the satellite is in the earth's shadow,  

DLR